Wind_Speed
5 5 5 6 6 5 5 6 6 7 8 7 6 7 7 6 5 5 6 8 9 9 9 9 8 7 7 8 9 10 11 12 13 14 14 14 14 15 16 17 17 18 17 18 17 17 17 17 16 15 14 14 14 14 14 15 15 15 14 14 13 12 12 12 12 12 12 13 13 14 14 15 15 15
5 6 6 6 6 6 6 7 8 8 9 8 8 8 9 9 9 8 8 9 10 10 10 10 9 9 9 10 11 12 12 12 13 15 15 14 14 15 15 16 17 17 16 17 18 18 17 16 16 15 14 13 13 13 13 14 14 14 14 14 13 12 11 11 11 10 10 10 10 11 12 12 12 13
5 6 6 5 5 5 6 7 8 8 8 8 8 9 9 9 10 9 9 10 10 11 11 12 13 13 13 13 13 13 13 13 13 14 15 16 15 15 15 16 16 16 15 15 17 18 17 17 16 15 15 15 14 13 13 13 13 13 13 13 13 12 10 9 9 9 9 8 8 8 8 9 9 10
6 7 7 6 5 5 6 7 7 7 7 7 8 9 9 10 10 10 10 10 11 11 12 12 14 15 15 15 14 14 13 13 13 14 15 16 16 16 15 16 17 16 15 15 15 17 17 17 17 15 15 15 15 14 13 13 13 12 12 11 11 11 10 9 8 8 7 7 7 6 6 6 6 7
8 8 8 7 6 6 7 8 7 7 7 8 9 10 11 11 10 11 11 11 12 12 13 13 14 15 16 16 16 15 15 15 14 15 16 17 17 17 16 17 17 16 15 14 15 16 17 17 18 17 15 15 16 16 15 14 13 13 12 11 10 9 9 8 7 7 6 6 6 6 5 5 4 3
9 9 9 9 8 8 8 8 8 8 9 10 11 12 12 13 13 13 13 13 14 15 15 15 15 15 16 17 18 18 18 17 17 17 18 19 18 18 16 16 17 17 16 15 15 15 16 17 18 18 17 15 16 17 16 15 14 13 12 11 11 10 8 7 7 6 5 4 4 4 4 4 3 3
10 10 10 11 10 10 9 9 9 10 11 12 12 13 14 14 14 15 15 16 17 17 17 17 17 17 18 18 19 20 20 19 19 19 19 18 19 18 17 15 16 17 16 16 16 16 15 15 17 18 18 17 17 17 17 17 16 15 13 13 12 11 10 8 7 6 5 4 4 4 4 4 3 3
12 12 12 12 12 11 11 11 11 12 13 13 14 14 15 15 16 16 17 17 18 19 19 19 19 19 20 20 20 21 21 20 19 19 18 17 17 18 17 16 17 18 18 18 18 18 17 16 16 17 19 19 18 18 18 17 17 16 14 13 13 13 12 10 8 7 6 6 6 5 5 4 4 4
13 13 13 13 14 13 12 12 13 14 14 14 15 16 17 17 17 18 18 18 18 19 20 21 20 20 21 21 21 21 21 20 18 18 17 16 15 15 15 16 18 19 20 20 20 20 19 18 17 17 19 20 19 18 18 17 17 16 15 14 14 13 13 12 11 9 8 7 7 7 7 7 6 6
15 14 15 15 15 15 15 14 14 14 15 15 16 17 17 18 18 18 18 18 19 20 20 21 21 21 22 22 21 21 21 21 20 19 17 16 14 13 14 16 18 20 21 21 21 21 21 21 20 19 18 20 20 19 17 16 16 16 16 15 14 14 14 13 13 12 11 10 9 8 8 9 9 9
16 16 16 17 17 17 17 17 16 16 16 17 18 18 18 18 19 19 19 19 20 21 21 22 22 22 23 23 22 22 22 23 22 21 20 18 16 15 16 17 18 21 22 21 21 22 23 23 22 21 19 18 20 21 19 17 16 16 17 17 16 15 15 15 14 14 14 13 12 11 10 10 10 10
18 18 18 19 20 20 20 19 19 19 19 19 19 20 20 20 21 21 22 22 22 22 23 23 23 24 25 25 24 24 24 24 23 23 22 21 20 20 20 21 20 21 22 22 22 23 24 25 25 24 22 19 18 20 21 20 17 17 19 20 19 18 18 18 17 16 16 16 15 14 13 12 12 12
19 19 20 21 22 22 22 22 22 22 22 22 22 22 22 22 22 23 23 23 24 24 24 24 24 25 26 27 26 26 26 25 24 24 23 24 24 24 25 25 24 23 23 24 24 24 24 26 28 28 26 23 20 19 21 22 21 21 22 22 22 21 20 20 19 19 19 18 18 17 16 15 14 14
20 21 22 23 23 24 24 25 24 24 25 25 25 25 24 24 24 24 24 25 25 25 25 26 26 27 27 28 27 26 26 26 25 25 25 25 25 26 26 27 27 27 26 25 26 26 26 26 28 28 28 27 24 21 21 22 23 23 23 23 22 21 21 20 20 20 19 19 19 19 19 18 18 17
22 23 24 24 25 26 26 26 26 26 26 26 27 27 27 26 26 25 25 26 26 26 26 26 27 27 28 29 29 27 27 26 26 26 26 26 27 27 27 29 31 31 29 27 27 28 29 29 28 28 28 29 28 26 23 23 23 23 23 22 21 20 20 20 20 20 20 20 20 20 20 20 20 20
25 25 26 26 27 27 28 28 28 27 27 27 27 27 27 26 25 25 26 26 27 27 26 25 26 26 26 27 29 28 27 27 27 28 28 28 28 28 29 31 33 32 31 30 30 29 31 32 31 29 30 31 31 29 26 24 24 24 24 23 22 21 20 20 20 20 20 20 21 21 21 22 22 22
26 26 27 27 28 30 30 31 31 30 29 29 28 28 28 27 26 27 27 26 26 26 26 26 26 27 26 26 27 29 29 28 28 29 30 30 30 30 31 32 33 33 32 32 32 32 32 32 31 31 32 33 33 31 27 25 24 25 25 25 25 24 23 23 22 21 21 22 22 22 23 23 23 24
27 27 27 28 29 31 32 32 32 32 32 32 31 31 31 31 31 31 29 28 27 27 27 27 27 27 27 26 27 28 29 30 30 30 31 31 32 32 32 33 34 35 34 34 34 34 33 31 31 33 33 33 32 30 28 26 25 25 26 26 27 27 27 27 26 25 24 24 24 25 25 25 25 25
29 29 29 29 30 31 32 32 32 33 34 35 34 34 34 34 34 34 32 31 30 29 29 28 28 28 28 28 28 29 30 30 31 32 33 34 34 34 35 36 37 37 37 36 35 34 32 30 30 32 33 32 30 29 27 27 27 28 27 26 27 28 29 30 31 30 28 28 29 28 27 27 27 27
29 31 31 31 32 32 32 32 33 34 35 36 36 36 35 35 35 34 34 34 34 33 32 31 30 30 30 30 30 30 31 32 33 34 35 36 37 37 37 38 38 38 37 35 33 32 31 31 29 30 32 32 30 28 26 25 26 28 27 26 26 28 30 31 32 32 32 34 33 32 30 29 29 29
32 33 34 33 33 32 33 34 35 37 37 36 37 36 36 35 35 35 35 36 36 36 35 34 34 34 33 33 32 33 33 33 34 35 36 37 37 37 37 38 38 37 35 33 30 29 30 32 31 30 31 31 30 29 26 25 26 28 28 28 28 30 33 34 34 36 37 37 36 34 32 32 32 31
36 37 36 36 36 35 35 36 37 38 38 37 37 37 36 36 37 36 37 37 37 37 36 37 37 36 36 36 36 36 35 35 36 36 35 36 36 37 37 36 36 36 35 33 31 29 30 33 33 31 30 31 32 30 27 27 29 32 34 35 35 36 37 38 39 39 39 38 36 35 34 34 34 34
37 37 36 36 36 36 36 36 37 38 39 38 38 38 39 39 39 39 39 38 38 37 37 37 38 38 38 38 38 38 38 38 38 37 36 36 36 36 36 35 35 35 35 34 33 31 31 32 33 32 32 33 33 31 29 29 32 35 38 39 38 39 41 42 41 40 39 38 37 37 37 37 37 36
31 31 32 32 33 34 35 35 34 34 35 37 39 40 41 42 42 42 41 40 38 38 37 37 38 38 39 39 39 39 39 39 38 38 37 37 37 36 36 35 35 35 35 34 34 33 32 32 33 33 33 32 30 30 32 34 36 37 38 39 38 39 40 42 41 41 40 40 40 40 41 41 40 39
29 30 32 32 33 34 35 36 34 33 34 36 39 41 42 42 42 42 41 40 39 39 38 38 39 39 40 40 40 40 40 40 39 39 39 39 39 38 37 37 36 36 36 36 35 35 35 34 33 32 32 32 33 34 37 38 38 38 39 39 38 38 38 39 39 40 41 41 41 42 42 42 42 42
35 36 37 36 36 36 37 38 37 36 36 36 37 39 41 42 42 41 40 40 39 39 40 40 40 40 40 41 42 42 42 41 40 40 39 39 39 39 39 38 38 38 38 37 37 37 36 35 34 35 37 39 40 41 42 42 42 41 41 41 41 40 38 38 37 38 40 42 43 43 43 42 43 43
40 40 39 39 39 39 38 39 39 39 38 37 38 40 41 42 42 41 40 39 39 39 40 40 41 41 41 41 42 42 41 41 40 39 39 39 39 39 39 39 40 40 40 39 39 39 38 36 37 39 41 43 45 45 45 45 45 45 44 45 45 43 41 40 40 40 42 46 48 48 48 47 47 46
41 40 39 38 37 37 37 37 37 37 37 38 38 39 39 39 38 37 36 35 35 36 37 38 39 40 41 41 41 41 41 40 40 40 40 40 40 40 41 41 41 42 42 42 42 42 42 41 42 43 44 46 47 47 48 48 48 48 48 47 47 46 45 45 46 46 47 49 52 53 53 53 54 53
38 37 35 34 33 33 33 33 31 29 28 29 30 31 31 31 31 31 31 31 31 32 33 35 37 38 39 39 39 40 40 40 41 41 42 42 42 43 43 44 44 45 45 45 46 46 46 46 46 47 47 48 48 49 50 50 50 51 51 51 50 50 49 50 50 50 50 51 54 56 57 57 58 58
29 27 26 25 24 24 24 24 23 23 23 24 25 26 27 28 28 29 30 31 32 33 34 35 37 38 39 40 40 41 41 42 42 43 44 44 45 45 46 46 47 47 48 48 49 50 50 50 50 51 51 51 52 52 53 53 54 54 54 54 54 54 53 53 53 54 53 53 54 55 56 58 58 59
21 20 20 20 20 20 21 21 22 22 22 23 24 26 28 29 30 31 33 34 35 36 37 38 39 40 41 42 43 44 44 45 45 46 47 47 48 49 49 50 50 50 51 52 52 53 53 53 53 54 54 55 55 55 55 56 57 57 57 57 57 57 57 57 57 57 57 56 56 56 56 58 59 59
21 21 21 22 22 22 23 23 23 22 22 23 24 26 28 30 32 34 35 37 37 38 40 41 42 43 44 45 46 47 48 48 49 50 50 51 52 52 53 53 54 54 55 55 56 56 57 57 57 57 57 57 58 58 58 59 59 59 59 59 60 60 60 60 60 60 60 59 59 58 57 58 59 60
23 23 23 23 24 24 24 25 25 26 26 26 27 29 31 33 35 37 38 39 40 41 42 44 45 46 47 48 49 50 51 52 53 53 54 55 55 56 57 57 57 57 58 58 59 59 60 60 60 60 60 60 61 61 61 61 62 62 61 61 62 62 63 63 63 63 63 63 63 62 61 60 60 61
24 24 25 25 25 25 26 27 28 29 30 30 31 32 34 36 38 39 41 42 43 44 45 46 48 49 50 52 53 54 55 56 57 57 58 59 59 60 60 61 61 62 62 62 62 63 63 63 63 63 63 63 64 64 64 64 64 65 64 64 64 64 65 66 67 67 67 67 66 65 64 63 62 61
25 26 26 26 27 27 28 29 30 31 32 34 35 36 38 39 41 42 44 45 47 48 50 51 52 54 55 56 57 59 60 61 61 62 63 64 64 65 65 65 66 66 67 67 67 67 67 67 67 67 67 67 66 67 67 66 66 66 66 67 66 65 64 63 64 66 68 69 69 69 67 65 64 63
24 25 26 27 27 29 30 31 33 34 36 37 39 41 42 44 45 46 48 49 51 53 54 55 57 58 59 60 61 62 63 64 65 66 67 68 68 69 69 70 70 70 71 71 71 71 71 71 71 71 70 70 69 69 69 69 69 68 68 68 68 67 65 62 61 61 61 62 64 67 68 67 66 65
24 25 26 28 29 31 33 34 36 38 40 41 43 45 47 48 49 50 52 53 54 55 57 58 59 60 61 62 64 65 66 67 68 68 69 70 71 71 72 72 73 73 74 74 74 74 73 73 72 72 71 71 70 69 69 70 71 71 70 70 70 69 69 68 67 66 64 61 59 62 67 68 68 68
26 27 29 31 32 34 36 38 41 43 44 46 48 49 51 52 53 53 54 55 56 57 58 60 61 62 64 65 67 68 69 70 70 71 72 73 73 74 74 75 75 75 75 76 76 76 76 75 74 73 72 70 70 69 68 69 71 71 71 71 71 71 71 71 71 71 71 70 69 69 72 73 72 72
29 30 32 34 35 37 40 42 44 46 47 49 51 52 53 54 55 55 56 58 59 60 61 63 64 65 67 68 70 71 72 73 74 74 75 75 76 76 77 77 77 77 76 76 76 76 75 75 74 74 73 71 70 69 68 68 69 70 70 70 71 72 72 73 73 72 73 74 74 75 76 75 74 74
31 33 34 36 38 40 42 44 46 47 49 50 52 53 54 55 56 57 58 59 61 62 64 66 68 69 71 72 74 75 75 76 77 77 77 77 78 78 78 78 77 77 77 76 76 75 74 73 72 72 72 71 70 69 68 67 66 67 68 68 69 70 71 72 73 74 74 74 74 74 74 74 74 74
34 35 37 38 40 42 44 46 48 49 51 52 53 54 55 56 56 57 58 60 62 64 66 69 71 72 73 75 76 76 77 77 78 78 78 78 77 77 77 77 76 76 76 75 75 74 73 72 71 70 69 69 68 67 66 66 66 65 65 65 65 66 67 68 70 71 73 74 74 74 74 73 73 73
37 39 40 41 43 44 46 48 50 52 53 54 55 55 56 56 57 58 59 62 64 67 69 70 72 73 73 74 75 75 76 76 77 77 76 76 75 75 74 73 73 72 71 70 70 69 69 69 69 69 70 70 69 68 67 66 65 65 64 64 64 64 64 65 66 68 70 72 73 73 74 73 73 72
40 42 43 45 46 47 48 50 52 53 54 55 55 56 56 57 58 60 63 65 68 70 71 71 71 71 71 71 72 72 72 71 71 70 69 68 67 66 66 65 64 64 64 64 65 66 66 67 68 69 70 71 71 70 70 68 67 66 64 63 63 63 63 64 64 66 67 69 70 71 72 72 71 70
43 45 46 47 48 50 51 53 54 54 55 55 56 56 57 59 61 63 66 68 70 71 71 70 69 69 68 67 66 65 63 62 61 60 59 59 59 59 59 60 60 61 61 62 64 65 66 68 69 69 69 69 69 68 67 65 64 63 62 60 60 60 60 61 61 62 64 65 66 67 68 68 67 67
46 47 48 49 50 52 54 55 55 56 56 57 57 58 60 61 63 65 67 69 69 69 68 67 65 64 63 61 59 57 56 56 56 56 57 58 58 59 60 60 61 61 62 62 63 65 66 66 66 65 63 62 60 59 57 56 54 53 53 54 54 54 55 56 56 58 59 59 59 60 61 61 62 62
Wind_Direction
284 291 296 298 301 312 325 317 304 304 312 321 326 325 332 346 352 344 334 332 336 338 340 342 344 347 345 342 342 345 351 354 354 360 7 9 10 12 12 8 4 4 3 1 3 5 7 8 9 11 14 18 22 19 15 14 14 14 12 8 7 11 16 23 34 45 54 60 65 68 70 71 72 75
302 304 307 310 318 334 334 315 313 322 325 327 328 328 335 343 347 349 346 342 341 340 339 340 339 337 339 343 344 346 350 353 352 351 353 357 360 1 3 3 2 2 358 354 356 359 1 4 5 4 3 7 13 15 14 13 13 14 13 12 9 7 8 12 19 30 41 51 61 68 73 76 77 79
300 299 300 306 319 334 326 317 326 334 332 330 327 324 329 337 343 347 344 338 336 334 334 335 335 333 335 339 341 343 345 346 347 344 342 343 346 348 352 354 355 355 353 351 351 352 353 356 360 0 357 355 360 6 7 6 9 12 11 11 12 8 6 6 8 14 22 31 44 57 68 76 80 83
284 287 291 296 305 313 310 314 324 326 320 317 314 313 319 326 333 338 336 330 326 324 324 326 326 327 329 332 334 335 337 338 338 335 332 333 335 337 342 346 345 345 346 347 346 346 347 349 351 354 354 351 350 355 1 360 0 5 6 6 7 9 10 9 5 4 6 13 21 29 44 61 74 84
280 284 289 296 301 305 306 310 315 313 307 303 303 307 311 315 320 323 323 321 318 316 315 317 318 320 323 325 327 328 331 332 330 327 325 327 329 331 336 340 340 341 344 345 343 339 338 340 343 345 347 349 347 347 351 353 352 355 358 358 356 358 4 7 4 2 359 1 5 7 10 20 38 63
281 285 291 297 301 304 305 305 306 304 301 299 300 304 306 309 311 312 313 314 315 314 313 314 316 317 319 320 321 322 323 324 324 323 322 324 327 329 333 337 340 342 343 343 341 337 332 331 334 338 341 345 345 344 344 344 344 345 348 348 345 344 347 350 352 356 356 352 349 348 344 345 350 357
278 281 286 290 294 297 297 296 297 297 296 297 299 301 303 304 304 304 307 309 310 311 310 311 312 313 314 314 313 314 316 318 320 320 320 321 322 324 328 334 340 343 343 342 342 339 334 329 328 331 334 338 340 339 338 336 334 336 339 340 336 332 332 332 332 333 332 328 324 318 311 307 306 308
275 277 281 285 289 293 293 293 294 294 294 296 297 296 297 297 298 299 301 304 307 309 310 310 310 310 310 308 308 308 309 311 313 315 317 317 318 320 325 331 338 341 340 339 338 336 333 329 325 324 324 327 331 331 331 329 326 325 329 333 331 327 324 321 318 314 310 309 308 303 295 286 278 275
276 280 283 287 289 292 293 294 295 295 296 297 298 297 296 297 299 300 301 305 308 309 310 309 309 309 307 306 306 306 306 306 308 309 311 313 316 319 322 326 331 333 334 333 331 330 329 325 321 319 317 318 320 322 322 322 319 318 319 323 324 323 320 317 313 309 302 299 298 297 295 290 280 272
281 283 283 286 288 290 292 293 294 295 296 298 298 298 299 300 301 302 304 305 308 309 308 308 308 308 307 307 307 307 306 305 305 306 306 307 311 313 314 317 323 325 326 325 325 324 325 323 319 316 314 312 311 311 311 312 313 313 313 314 314 313 312 311 310 307 302 296 290 288 289 288 285 280
284 285 286 287 287 288 290 292 292 293 293 295 296 296 297 299 301 303 303 304 305 306 306 306 305 304 304 305 306 307 305 304 304 305 304 304 306 307 307 312 318 321 321 321 319 318 318 317 316 314 314 312 308 306 303 302 305 309 311 311 308 304 301 300 300 301 300 297 292 285 279 277 276 277
284 285 286 286 287 289 291 292 291 291 291 291 292 293 295 297 298 300 300 301 302 302 302 302 302 302 301 301 302 303 303 302 302 303 303 303 304 306 307 309 313 317 318 318 316 315 315 314 312 311 314 315 312 307 302 298 299 303 307 308 306 302 297 293 291 291 294 295 294 289 282 275 270 268
282 282 283 285 287 289 289 289 288 288 289 289 289 290 291 292 293 294 295 296 298 298 297 297 297 298 299 299 301 302 302 302 301 301 301 301 301 303 305 306 310 313 314 313 312 313 316 315 312 309 310 313 313 308 301 298 299 301 303 305 303 299 296 292 289 287 288 290 291 290 287 282 277 271
277 279 280 282 284 285 286 286 287 287 287 287 288 289 289 289 290 290 291 291 291 291 291 290 290 291 293 295 298 299 300 300 300 299 299 298 299 301 302 303 305 308 309 309 309 310 313 314 311 307 307 308 309 306 298 294 296 298 298 299 299 297 294 292 289 287 287 288 289 289 287 285 282 277
273 275 276 278 281 283 285 285 285 286 287 288 289 290 290 290 289 290 290 290 288 288 289 289 289 289 290 291 294 295 295 294 294 294 294 295 297 298 299 300 301 303 305 306 306 307 309 310 306 302 301 302 303 303 297 289 286 289 291 289 290 291 290 288 287 287 288 289 290 290 288 286 283 280
275 275 276 278 281 283 284 284 285 286 288 289 291 291 290 290 290 290 290 290 289 290 291 291 291 290 290 290 291 293 293 291 290 289 290 291 292 294 295 295 297 300 302 303 303 304 306 305 301 296 295 297 298 299 298 291 283 282 283 282 280 280 282 282 282 283 285 287 289 291 291 290 288 285
278 278 279 280 281 281 282 283 284 286 286 288 289 290 288 289 290 290 290 289 287 287 288 289 290 290 289 287 288 290 291 291 290 290 291 291 291 292 293 294 295 297 299 299 300 303 304 301 296 295 294 295 295 295 294 292 286 281 280 280 277 275 275 276 276 277 279 281 284 286 289 289 289 287
279 281 283 283 283 283 283 284 285 285 285 286 288 289 288 288 289 290 290 288 285 283 283 284 286 286 287 285 285 286 288 290 291 291 292 292 292 292 293 293 294 294 295 297 299 301 302 298 295 295 295 293 292 290 288 288 286 283 280 278 277 274 273 274 275 276 277 279 279 281 284 287 286 284
278 281 283 285 285 286 288 288 288 288 287 288 289 290 290 290 291 292 292 290 288 285 283 282 282 284 285 285 284 285 286 287 288 290 290 290 291 291 291 291 291 291 293 295 297 298 297 295 294 294 294 293 291 287 285 287 288 285 281 275 273 273 273 273 274 274 276 280 280 278 280 284 284 282
279 279 281 283 286 288 290 290 291 290 289 289 289 289 290 291 292 293 293 293 292 291 289 287 286 285 284 284 284 284 284 285 286 287 288 289 290 291 291 290 290 291 292 293 294 295 294 293 292 291 291 291 289 285 285 287 286 283 279 274 273 276 276 274 273 273 276 281 280 276 276 281 283 281
278 277 279 281 284 286 287 289 290 289 288 287 287 287 288 289 292 293 293 293 293 293 292 292 291 289 288 287 286 285 285 285 285 285 286 287 288 289 290 290 290 291 291 291 290 290 290 290 291 290 288 286 286 285 284 280 275 273 275 275 276 279 278 275 273 273 275 278 277 273 273 278 280 279
277 276 278 280 281 282 283 286 288 288 286 283 282 283 285 287 289 290 289 289 289 289 290 290 291 291 291 290 290 289 288 287 286 286 286 286 287 287 287 287 288 288 288 288 286 285 286 287 288 288 285 281 282 283 281 275 270 269 271 275 276 277 276 274 273 274 274 274 272 270 270 274 277 276
275 275 278 280 280 280 281 283 286 287 286 284 281 281 282 284 285 286 286 285 285 285 286 287 288 288 288 289 290 290 290 289 288 287 287 287 287 286 286 286 286 286 286 286 285 285 285 285 286 286 283 279 278 277 276 276 276 274 276 278 279 278 278 276 276 275 273 270 267 267 269 272 272 270
273 274 277 281 282 282 282 282 283 284 285 284 283 282 282 282 283 283 284 284 284 284 284 284 285 285 286 287 288 288 288 287 286 286 286 286 286 285 285 285 284 284 284 283 284 283 282 282 284 286 284 279 274 273 277 279 279 279 281 283 283 282 279 276 273 271 268 266 266 268 271 272 271 269
270 272 276 279 281 283 283 282 281 280 280 280 280 279 279 280 280 281 281 282 282 282 282 283 283 284 286 287 288 288 287 284 283 283 283 283 283 282 282 283 282 282 282 281 281 281 279 279 279 278 276 274 274 276 279 279 278 278 280 280 281 281 278 274 271 268 266 267 269 272 272 271 270 269
272 275 276 277 278 281 283 282 280 277 276 275 273 273 274 274 276 277 278 279 280 281 281 282 282 283 285 285 285 285 284 282 281 280 280 281 281 281 282 282 282 281 281 280 280 279 279 277 272 267 266 270 274 276 277 276 274 274 275 275 276 277 277 275 273 270 269 269 271 271 270 269 268 268
274 276 276 275 277 279 280 281 281 279 277 273 271 271 272 273 275 277 279 281 283 283 282 282 282 282 281 281 281 280 280 279 280 280 280 281 282 282 282 282 282 282 281 281 280 279 277 274 270 267 267 271 274 275 275 274 274 274 273 273 273 273 273 273 272 271 272 272 271 269 267 267 266 266
269 271 271 272 275 277 279 281 281 281 278 275 273 274 275 276 277 280 282 285 286 286 285 284 284 283 282 282 281 281 280 280 281 281 282 282 282 282 282 282 282 282 281 281 280 279 277 275 272 271 271 272 274 274 274 275 275 275 275 274 272 271 270 269 269 270 271 272 272 272 270 270 270 270
269 269 270 272 274 276 278 278 275 272 271 270 271 272 273 276 279 283 286 288 289 288 287 286 285 285 285 284 283 282 282 282 282 282 282 282 281 281 280 280 280 280 280 279 279 278 278 277 276 275 274 273 273 273 273 274 274 274 274 273 271 270 268 268 268 268 268 268 270 272 272 272 272 273
269 268 269 272 274 276 277 276 274 273 274 277 279 280 281 283 286 287 288 289 288 288 287 287 287 287 287 287 286 285 285 284 284 284 284 283 283 283 282 281 281 281 280 280 279 279 278 277 277 276 276 275 274 274 273 273 273 273 273 273 272 271 269 268 267 267 267 266 266 268 269 271 272 272
272 274 278 281 284 286 286 287 288 291 292 293 294 293 293 293 293 293 292 292 291 292 292 292 292 292 292 292 292 291 291 290 289 289 288 288 287 287 286 285 285 284 283 282 281 281 280 280 279 278 278 277 277 276 275 275 274 274 274 274 273 273 271 270 269 268 267 266 266 265 266 267 268 269
288 291 293 294 295 296 297 298 299 300 300 299 297 296 295 295 295 294 294 295 296 296 296 296 296 296 296 295 294 294 293 292 291 291 290 289 288 288 287 286 286 285 284 284 283 282 282 281 281 280 279 279 278 277 277 276 276 276 276 275 275 274 273 272 271 270 269 267 266 266 265 265 266 266
297 299 300 300 301 302 302 303 302 301 300 299 298 298 297 296 296 296 296 296 297 297 297 296 296 295 294 293 292 292 291 291 290 290 289 289 288 288 287 286 285 285 284 283 283 283 282 281 281 280 279 279 278 277 277 276 276 275 274 274 274 274 273 273 272 272 271 270 268 267 266 264 264 264
301 302 302 303 303 304 303 303 302 301 300 299 298 297 296 296 296 295 296 296 296 295 295 294 294 293 293 292 292 292 291 291 290 289 289 288 287 287 286 285 285 284 283 282 281 281 280 280 279 278 278 277 276 276 275 274 274 274 273 272 272 271 272 272 272 272 271 271 270 269 267 265 263 261
304 305 306 306 306 305 304 303 301 300 299 299 298 297 296 296 295 295 296 296 295 295 294 294 293 293 293 293 292 292 291 290 290 289 288 288 287 286 285 284 283 283 282 281 280 279 278 278 277 276 275 275 274 274 273 272 271 271 271 271 271 270 270 270 270 271 272 271 270 269 267 266 264 263
305 305 305 305 304 303 302 301 300 299 299 299 299 298 298 297 297 298 298 297 297 296 296 295 295 295 294 293 292 291 291 290 289 289 288 288 287 287 286 285 284 283 282 281 280 279 278 277 276 275 274 273 272 272 271 271 270 269 268 268 267 267 267 265 264 266 268 270 270 269 268 267 266 264
303 303 302 302 302 302 302 302 302 301 301 301 300 300 299 299 299 299 299 298 298 297 296 296 295 295 294 293 292 291 291 290 290 289 289 288 287 287 286 285 285 284 283 282 282 281 280 278 277 276 275 274 272 271 270 270 269 268 267 267 266 265 264 263 262 261 261 260 261 263 265 266 266 265
301 301 302 302 303 303 303 303 303 303 303 303 303 302 302 302 301 301 300 299 298 297 296 295 295 294 293 293 292 292 292 291 290 290 289 288 287 286 285 285 284 283 283 282 281 281 280 280 279 278 277 276 274 273 271 270 269 268 267 266 266 265 264 263 262 261 260 259 258 259 261 264 265 265
298 300 301 302 302 303 303 303 303 304 304 304 304 303 303 302 302 301 300 299 298 297 297 296 296 295 295 294 294 293 292 291 290 289 288 287 286 286 285 284 284 283 283 283 282 282 282 281 281 280 279 278 277 275 273 271 270 269 268 266 266 265 264 264 263 263 262 262 261 262 263 264 265 265
298 299 300 301 302 302 303 303 303 303 304 304 303 303 302 302 301 300 300 299 299 298 298 298 298 297 297 296 295 294 292 291 290 289 288 287 286 285 285 284 284 284 284 284 284 284 284 284 283 282 281 280 279 278 276 274 272 270 270 268 267 266 265 265 264 264 264 264 263 263 264 265 265 265
296 298 299 300 301 302 302 302 302 303 303 303 303 302 301 301 300 300 299 299 299 299 299 299 298 297 296 295 293 292 291 290 289 288 287 287 286 286 286 286 285 285 286 286 286 286 286 285 285 284 283 282 281 280 278 276 274 273 271 270 268 267 266 266 265 265 265 265 265 265 264 264 265 265
298 299 300 301 301 301 301 302 302 303 303 303 302 302 301 300 300 299 299 300 300 300 300 299 297 296 294 293 291 291 290 289 288 288 287 287 287 286 286 286 287 287 287 287 286 286 286 286 285 285 284 283 282 281 279 278 276 274 273 271 269 268 267 266 265 265 264 264 265 265 265 265 265 265
300 301 302 302 301 301 302 303 303 303 303 303 302 302 301 301 301 301 302 302 302 301 300 298 296 295 293 292 291 291 290 290 290 289 289 288 288 288 287 287 288 288 288 288 288 288 287 287 287 287 286 285 283 281 280 278 276 275 273 271 269 267 266 265 264 264 264 264 264 264 264 265 265 265
300 301 301 302 302 303 304 304 304 304 303 303 302 302 302 302 302 303 304 304 303 301 300 298 297 296 295 294 294 294 294 294 293 293 292 291 291 290 290 289 289 289 289 289 289 290 290 291 291 291 290 287 284 281 279 276 275 273 272 270 269 268 267 266 265 264 264 265 265 265 265 265 265 266
301 301 302 303 304 305 305 305 305 304 304 304 303 303 303 303 304 304 304 303 302 300 298 297 297 297 296 296 296 296 296 296 296 295 294 293 293 292 292 291 291 291 291 291 292 293 294 294 294 293 290 286 283 281 279 276 274 273 271 270 270 269 269 269 268 268 267 268 269 269 269 269 269 268
Height
5937 5937 5937 5937 5937 5937 5937 5936 5935 5935 5934 5934 5934 5934 5933 5933 5933 5932 5931 5930 5929 5928 5928 5928 5927 5927 5927 5926 5925 5924 5922 5920 5918 5917 5917 5916 5915 5914 5912 5911 5910 5909 5907 5906 5904 5903 5902 5901 5899 5898 5896 5894 5893 5892 5891 5890 5889 5888 5887 5886 5884 5883 5881 5880 5879 5877 5876 5875 5874 5873 5873 5872 5872 5872
5937 5937 5936 5937 5937 5937 5936 5935 5935 5934 5934 5933 5933 5932 5932 5932 5931 5931 5930 5929 5928 5928 5927 5927 5927 5927 5927 5926 5924 5923 5921 5920 5918 5917 5916 5915 5915 5914 5913 5912 5910 5909 5907 5906 5904 5903 5901 5901 5900 5898 5897 5895 5894 5893 5892 5891 5890 5889 5888 5887 5886 5884 5883 5881 5880 5879 5878 5877 5876 5875 5874 5873 5873 5873
5936 5936 5936 5936 5936 5936 5935 5934 5934 5934 5933 5933 5932 5931 5931 5931 5930 5929 5929 5928 5927 5927 5926 5926 5925 5925 5925 5924 5923 5922 5921 5919 5918 5917 5915 5915 5914 5914 5913 5911 5910 5909 5908 5906 5904 5902 5901 5900 5899 5898 5897 5896 5894 5893 5892 5891 5890 5889 5889 5888 5887 5886 5884 5883 5881 5880 5879 5878 5877 5876 5875 5874 5874 5873
5935 5935 5935 5935 5935 5935 5934 5934 5934 5933 5932 5932 5931 5930 5930 5929 5928 5928 5928 5927 5927 5926 5925 5924 5924 5923 5922 5922 5921 5921 5920 5919 5918 5917 5915 5914 5913 5913 5912 5910 5909 5909 5907 5905 5904 5902 5901 5900 5899 5898 5897 5896 5895 5894 5892 5891 5890 5889 5889 5888 5887 5886 5885 5884 5882 5881 5880 5879 5879 5878 5877 5876 5875 5875
5935 5935 5935 5935 5935 5935 5934 5934 5933 5933 5932 5931 5930 5929 5929 5928 5927 5927 5926 5926 5926 5925 5924 5923 5922 5921 5920 5919 5919 5919 5918 5918 5917 5916 5915 5913 5912 5911 5910 5909 5908 5907 5906 5905 5903 5902 5900 5899 5898 5897 5896 5896 5895 5894 5893 5892 5890 5889 5889 5888 5887 5886 5885 5884 5883 5882 5881 5880 5879 5878 5878 5877 5877 5876
5934 5934 5934 5934 5934 5934 5933 5933 5932 5932 5931 5931 5930 5929 5928 5927 5926 5926 5926 5925 5924 5924 5923 5922 5921 5920 5919 5918 5917 5917 5916 5916 5916 5915 5913 5912 5911 5910 5909 5909 5907 5906 5905 5904 5903 5901 5900 5899 5897 5896 5896 5895 5895 5894 5893 5892 5890 5889 5888 5887 5887 5886 5885 5884 5883 5882 5881 5880 5879 5879 5878 5877 5877 5876
5933 5933 5933 5933 5933 5933 5932 5932 5931 5931 5930 5929 5929 5928 5927 5927 5926 5925 5925 5924 5923 5922 5921 5921 5920 5919 5918 5917 5916 5915 5915 5914 5913 5913 5912 5911 5910 5909 5908 5908 5907 5905 5904 5903 5902 5901 5899 5898 5897 5896 5895 5894 5894 5893 5892 5891 5890 5889 5888 5887 5886 5885 5884 5884 5883 5882 5881 5880 5879 5879 5878 5877 5877 5876
5932 5931 5931 5931 5931 5931 5931 5930 5930 5929 5928 5928 5927 5927 5926 5925 5925 5924 5923 5922 5922 5920 5919 5919 5918 5917 5917 5916 5915 5914 5913 5912 5912 5911 5911 5911 5909 5908 5907 5907 5906 5905 5904 5903 5902 5900 5899 5898 5897 5895 5894 5893 5893 5892 5891 5890 5889 5888 5887 5886 5886 5885 5884 5883 5882 5881 5881 5880 5879 5879 5878 5877 5877 5876
5930 5930 5929 5929 5929 5929 5929 5929 5928 5927 5927 5926 5926 5925 5924 5924 5923 5922 5922 5921 5920 5919 5918 5917 5916 5916 5915 5914 5913 5912 5911 5911 5910 5910 5909 5909 5909 5908 5907 5906 5905 5904 5903 5902 5901 5900 5898 5897 5896 5895 5894 5892 5891 5891 5890 5889 5888 5887 5886 5885 5885 5884 5883 5883 5882 5881 5880 5879 5879 5878 5878 5877 5877 5876
5928 5928 5927 5927 5927 5926 5926 5926 5926 5926 5925 5925 5924 5924 5923 5922 5922 5921 5921 5920 5919 5918 5916 5915 5914 5913 5913 5912 5911 5911 5909 5908 5908 5908 5907 5907 5907 5907 5906 5905 5904 5902 5901 5901 5900 5898 5897 5896 5895 5894 5893 5892 5890 5889 5888 5887 5886 5886 5885 5883 5883 5883 5882 5881 5881 5880 5879 5878 5877 5876 5876 5876 5876 5875
5926 5926 5926 5925 5924 5924 5924 5924 5924 5923 5923 5922 5922 5922 5921 5921 5920 5920 5919 5918 5917 5916 5915 5913 5912 5911 5911 5910 5909 5909 5908 5906 5905 5905 5905 5905 5905 5905 5904 5904 5903 5901 5900 5899 5898 5896 5895 5894 5893 5892 5892 5891 5889 5888 5887 5886 5885 5884 5883 5882 5881 5881 5880 5880 5879 5878 5877 5876 5875 5875 5874 5873 5873 5873
5924 5924 5923 5923 5922 5922 5922 5921 5921 5921 5920 5920 5920 5919 5919 5919 5918 5918 5917 5916 5915 5914 5913 5912 5911 5910 5908 5908 5907 5906 5905 5904 5903 5903 5902 5902 5902 5902 5901 5901 5901 5900 5898 5897 5895 5894 5893 5892 5891 5890 5889 5889 5888 5887 5885 5884 5883 5882 5881 5880 5879 5878 5878 5877 5877 5877 5876 5875 5874 5873 5872 5871 5871 5870
5922 5922 5921 5921 5920 5920 5919 5919 5919 5918 5918 5917 5917 5917 5916 5916 5916 5915 5915 5914 5913 5912 5911 5910 5908 5908 5906 5905 5905 5904 5903 5902 5901 5900 5900 5899 5899 5898 5897 5897 5897 5897 5896 5895 5894 5892 5891 5890 5888 5887 5886 5886 5886 5885 5883 5882 5881 5880 5879 5878 5877 5876 5875 5875 5874 5874 5874 5873 5872 5871 5870 5869 5869 5868
5920 5920 5920 5919 5918 5918 5917 5917 5916 5916 5915 5915 5914 5914 5914 5913 5913 5913 5912 5912 5911 5910 5909 5907 5906 5905 5904 5903 5902 5901 5900 5899 5899 5898 5897 5897 5896 5896 5895 5893 5893 5893 5894 5893 5892 5891 5890 5889 5887 5884 5883 5883 5883 5882 5881 5880 5879 5878 5877 5876 5875 5874 5873 5872 5871 5871 5871 5870 5870 5869 5868 5867 5867 5866
5918 5918 5917 5916 5916 5915 5915 5914 5913 5913 5912 5912 5912 5911 5911 5910 5910 5910 5909 5908 5907 5907 5906 5905 5904 5903 5901 5900 5899 5898 5898 5897 5896 5896 5895 5894 5894 5893 5892 5891 5889 5890 5891 5890 5889 5888 5887 5886 5885 5882 5880 5879 5879 5879 5878 5877 5876 5875 5874 5873 5872 5872 5870 5869 5869 5868 5867 5867 5866 5866 5865 5865 5864 5864
5915 5914 5914 5914 5913 5912 5911 5910 5910 5910 5910 5909 5909 5908 5907 5907 5907 5906 5906 5905 5904 5903 5903 5902 5901 5899 5899 5897 5895 5894 5894 5894 5893 5892 5892 5892 5891 5890 5889 5888 5887 5886 5886 5886 5885 5885 5884 5882 5880 5879 5877 5876 5875 5875 5874 5874 5873 5872 5871 5870 5869 5868 5867 5866 5865 5865 5864 5864 5863 5862 5862 5861 5860 5860
5911 5911 5911 5911 5910 5909 5908 5907 5907 5907 5906 5906 5905 5905 5904 5904 5903 5903 5902 5902 5901 5900 5900 5899 5898 5896 5896 5895 5893 5891 5890 5890 5890 5889 5888 5888 5887 5887 5886 5885 5884 5883 5882 5881 5880 5881 5880 5878 5876 5875 5873 5872 5871 5870 5870 5869 5868 5868 5867 5866 5865 5865 5864 5863 5862 5861 5861 5860 5859 5859 5858 5857 5856 5856
5908 5908 5908 5907 5906 5905 5905 5904 5904 5903 5903 5902 5901 5901 5900 5900 5899 5898 5898 5898 5898 5897 5897 5896 5895 5893 5892 5892 5890 5889 5888 5887 5886 5886 5885 5884 5883 5883 5882 5881 5880 5879 5878 5877 5876 5876 5876 5875 5872 5870 5868 5867 5867 5866 5866 5865 5864 5863 5863 5862 5861 5861 5860 5860 5859 5858 5858 5857 5856 5855 5854 5853 5852 5851
5905 5904 5904 5904 5903 5902 5902 5902 5901 5900 5899 5898 5897 5897 5896 5896 5895 5894 5894 5893 5893 5893 5892 5892 5891 5890 5889 5888 5887 5886 5885 5884 5883 5882 5881 5880 5880 5879 5878 5877 5876 5875 5874 5873 5873 5872 5871 5871 5869 5866 5864 5863 5863 5862 5862 5861 5860 5859 5858 5858 5857 5857 5856 5856 5856 5855 5854 5853 5853 5852 5851 5850 5849 5848
5901 5901 5900 5900 5899 5899 5899 5898 5897 5896 5895 5894 5893 5892 5892 5891 5890 5890 5889 5889 5888 5888 5887 5887 5886 5885 5885 5884 5883 5882 5881 5880 5880 5879 5878 5877 5876 5875 5874 5872 5871 5870 5869 5869 5868 5867 5865 5865 5866 5864 5861 5859 5859 5858 5858 5858 5856 5854 5853 5853 5853 5853 5853 5852 5851 5851 5850 5849 5849 5848 5847 5847 5845 5844
5896 5896 5896 5896 5896 5895 5895 5895 5894 5892 5891 5890 5889 5888 5887 5886 5886 5885 5885 5884 5883 5883 5882 5882 5881 5881 5880 5879 5878 5878 5877 5876 5875 5875 5874 5872 5872 5871 5870 5868 5867 5866 5865 5864 5864 5863 5861 5859 5860 5860 5858 5856 5855 5854 5855 5855 5854 5851 5850 5849 5849 5849 5849 5848 5847 5846 5845 5845 5844 5844 5843 5843 5842 5840
5891 5890 5891 5891 5891 5891 5891 5890 5890 5888 5887 5886 5885 5884 5883 5882 5881 5881 5880 5880 5879 5878 5878 5877 5876 5876 5875 5874 5874 5873 5872 5871 5870 5870 5869 5868 5867 5866 5865 5864 5863 5862 5860 5860 5860 5859 5857 5855 5854 5855 5854 5852 5850 5850 5850 5850 5849 5847 5846 5846 5846 5845 5844 5843 5842 5842 5841 5840 5840 5839 5838 5837 5836 5835
5886 5886 5887 5887 5887 5886 5886 5886 5885 5884 5883 5882 5881 5880 5879 5878 5877 5876 5875 5874 5874 5874 5873 5873 5872 5871 5870 5870 5869 5868 5867 5866 5865 5864 5863 5862 5862 5861 5860 5859 5859 5857 5856 5855 5855 5855 5854 5852 5850 5849 5849 5847 5846 5845 5845 5844 5843 5842 5841 5840 5840 5840 5838 5837 5836 5836 5835 5835 5835 5834 5833 5832 5831 5830
5883 5883 5883 5883 5882 5882 5882 5881 5881 5880 5879 5878 5877 5876 5875 5874 5873 5871 5870 5869 5869 5868 5868 5868 5867 5866 5866 5865 5864 5863 5862 5861 5860 5859 5858 5857 5856 5855 5854 5854 5853 5852 5851 5850 5850 5850 5849 5849 5847 5845 5843 5842 5841 5840 5840 5839 5838 5836 5835 5835 5834 5833 5832 5831 5830 5830 5829 5829 5829 5828 5827 5826 5825 5824
5880 5879 5879 5879 5878 5878 5878 5877 5877 5876 5874 5874 5873 5872 5870 5869 5868 5867 5866 5865 5864 5863 5862 5862 5862 5861 5861 5860 5859 5858 5857 5856 5855 5854 5853 5852 5851 5850 5849 5849 5848 5847 5846 5845 5845 5844 5844 5844 5843 5841 5838 5836 5836 5835 5834 5832 5831 5831 5830 5829 5828 5827 5826 5826 5825 5824 5823 5822 5822 5821 5820 5820 5819 5818
5875 5875 5875 5874 5874 5873 5873 5873 5872 5871 5870 5869 5867 5866 5864 5863 5862 5861 5861 5860 5860 5859 5858 5857 5857 5856 5856 5855 5854 5852 5851 5850 5850 5849 5848 5847 5846 5845 5844 5843 5842 5841 5840 5840 5839 5838 5838 5838 5838 5836 5833 5831 5830 5830 5828 5826 5825 5824 5824 5823 5822 5822 5821 5821 5820 5818 5816 5815 5815 5814 5814 5813 5812 5811
5871 5870 5870 5869 5869 5868 5868 5868 5867 5866 5865 5863 5861 5860 5859 5857 5857 5857 5857 5857 5856 5855 5853 5853 5852 5852 5851 5850 5848 5847 5846 5845 5844 5843 5842 5841 5840 5839 5839 5838 5837 5836 5835 5834 5833 5832 5832 5831 5831 5829 5828 5826 5824 5823 5822 5820 5819 5818 5818 5817 5816 5816 5816 5815 5814 5812 5809 5808 5807 5807 5807 5806 5805 5804
5866 5865 5864 5864 5863 5863 5862 5862 5862 5861 5860 5857 5856 5855 5854 5853 5853 5853 5853 5853 5852 5850 5849 5848 5847 5846 5846 5845 5843 5842 5841 5840 5839 5838 5837 5836 5835 5834 5833 5832 5831 5830 5829 5828 5827 5826 5825 5824 5824 5823 5821 5819 5817 5816 5814 5813 5812 5811 5811 5810 5809 5810 5809 5808 5807 5805 5802 5800 5798 5797 5797 5797 5796 5796
5861 5860 5859 5858 5857 5857 5857 5856 5856 5855 5854 5852 5851 5850 5849 5849 5849 5849 5848 5848 5847 5846 5845 5843 5842 5841 5840 5839 5838 5837 5836 5835 5833 5832 5831 5830 5829 5828 5827 5826 5825 5824 5822 5821 5820 5819 5818 5817 5816 5815 5814 5813 5811 5809 5807 5806 5805 5804 5802 5801 5801 5801 5801 5799 5798 5797 5795 5793 5790 5789 5788 5787 5786 5785
5856 5855 5854 5853 5852 5852 5852 5852 5851 5850 5849 5848 5847 5846 5845 5845 5845 5844 5843 5843 5842 5841 5840 5839 5838 5837 5835 5834 5833 5832 5831 5830 5828 5827 5825 5824 5823 5822 5821 5820 5819 5818 5816 5814 5812 5811 5811 5809 5808 5807 5805 5804 5802 5801 5800 5798 5797 5795 5794 5793 5792 5792 5791 5790 5789 5788 5786 5785 5783 5781 5779 5778 5776 5776
5851 5851 5850 5850 5849 5849 5849 5848 5848 5847 5846 5845 5843 5842 5841 5840 5839 5839 5838 5837 5837 5836 5836 5834 5833 5832 5830 5829 5827 5826 5825 5823 5822 5821 5820 5818 5816 5815 5814 5812 5811 5811 5809 5807 5805 5804 5802 5801 5800 5799 5797 5795 5793 5792 5791 5789 5788 5787 5785 5784 5783 5782 5781 5780 5779 5778 5778 5776 5775 5773 5772 5770 5768 5767
5848 5848 5847 5847 5847 5847 5846 5845 5845 5844 5843 5842 5841 5840 5838 5837 5836 5835 5834 5833 5833 5832 5830 5829 5827 5826 5825 5823 5821 5819 5818 5817 5815 5814 5813 5811 5809 5808 5806 5805 5803 5802 5800 5798 5797 5796 5794 5792 5791 5790 5788 5787 5785 5783 5781 5780 5778 5778 5776 5774 5772 5771 5770 5769 5769 5768 5768 5767 5766 5765 5765 5763 5761 5759
5846 5845 5844 5844 5844 5843 5843 5842 5841 5840 5839 5838 5838 5837 5835 5834 5832 5831 5829 5828 5828 5827 5825 5823 5822 5820 5818 5816 5815 5813 5812 5810 5808 5807 5805 5803 5801 5799 5798 5796 5795 5794 5792 5790 5788 5786 5784 5783 5782 5780 5779 5777 5775 5773 5772 5770 5768 5767 5767 5765 5762 5760 5759 5758 5757 5756 5756 5755 5755 5755 5755 5754 5753 5751
5842 5842 5841 5841 5840 5840 5839 5838 5837 5836 5835 5834 5833 5832 5831 5830 5828 5826 5825 5824 5822 5821 5819 5817 5815 5813 5811 5809 5807 5806 5804 5802 5800 5798 5796 5794 5792 5790 5788 5787 5785 5783 5782 5780 5778 5776 5774 5772 5770 5769 5768 5766 5764 5763 5762 5760 5757 5756 5755 5754 5752 5751 5749 5747 5746 5744 5743 5742 5741 5741 5742 5742 5742 5740
5838 5837 5837 5836 5836 5835 5834 5833 5832 5831 5830 5829 5828 5827 5826 5825 5823 5822 5820 5818 5816 5814 5812 5810 5808 5805 5803 5801 5799 5797 5794 5792 5790 5788 5786 5784 5782 5780 5778 5776 5774 5772 5770 5769 5767 5765 5762 5760 5759 5757 5756 5754 5752 5750 5749 5748 5747 5745 5744 5743 5741 5740 5739 5738 5736 5734 5732 5730 5729 5728 5728 5728 5728 5728
5834 5834 5833 5832 5831 5831 5830 5829 5827 5826 5825 5824 5823 5821 5820 5818 5817 5815 5813 5811 5809 5806 5804 5802 5799 5797 5794 5792 5789 5787 5784 5782 5779 5777 5775 5773 5771 5768 5766 5764 5762 5760 5758 5756 5754 5752 5750 5748 5746 5745 5743 5741 5740 5738 5736 5734 5734 5734 5733 5731 5730 5730 5729 5728 5727 5725 5724 5721 5719 5716 5716 5716 5716 5715
5830 5830 5829 5828 5827 5826 5824 5823 5822 5820 5819 5818 5816 5814 5812 5811 5810 5808 5805 5803 5801 5798 5796 5793 5791 5788 5785 5782 5779 5776 5774 5772 5769 5767 5764 5762 5759 5757 5754 5752 5749 5747 5744 5742 5740 5738 5736 5734 5733 5731 5730 5728 5727 5726 5724 5720 5719 5720 5720 5718 5717 5717 5717 5716 5715 5714 5713 5712 5709 5706 5705 5704 5704 5703
5827 5826 5825 5823 5822 5820 5818 5817 5815 5813 5812 5810 5808 5807 5804 5802 5801 5799 5797 5794 5792 5789 5787 5784 5781 5779 5775 5772 5770 5767 5764 5761 5759 5756 5753 5750 5747 5745 5742 5739 5737 5734 5731 5729 5727 5724 5722 5720 5719 5718 5716 5715 5714 5713 5712 5709 5705 5705 5706 5706 5704 5703 5703 5702 5701 5701 5700 5700 5698 5696 5694 5693 5693 5691
5823 5822 5821 5819 5818 5815 5813 5811 5809 5807 5805 5803 5801 5799 5797 5795 5793 5791 5788 5785 5783 5780 5777 5774 5771 5768 5766 5763 5760 5757 5753 5751 5748 5744 5741 5738 5735 5732 5729 5726 5723 5721 5718 5715 5713 5711 5709 5707 5705 5703 5702 5701 5700 5699 5699 5697 5693 5691 5692 5693 5692 5691 5690 5689 5689 5688 5688 5688 5687 5685 5683 5683 5682 5680
5820 5818 5817 5815 5813 5811 5808 5806 5804 5802 5800 5798 5795 5793 5790 5788 5785 5783 5780 5777 5774 5771 5768 5764 5761 5758 5754 5751 5748 5745 5741 5738 5735 5732 5728 5725 5722 5718 5715 5713 5710 5708 5705 5702 5700 5698 5696 5694 5692 5689 5687 5687 5686 5685 5684 5683 5681 5679 5679 5680 5679 5678 5677 5677 5677 5676 5675 5675 5675 5673 5672 5671 5670 5668
5815 5814 5812 5810 5808 5805 5803 5801 5798 5796 5794 5791 5789 5786 5784 5781 5778 5775 5772 5769 5766 5762 5759 5755 5751 5747 5743 5739 5736 5732 5729 5726 5722 5718 5715 5712 5709 5706 5703 5700 5698 5695 5693 5690 5688 5686 5683 5681 5679 5677 5674 5673 5673 5672 5670 5669 5668 5667 5667 5667 5666 5665 5665 5665 5665 5664 5663 5663 5662 5661 5660 5660 5659 5657
5809 5808 5806 5804 5802 5800 5797 5794 5791 5789 5786 5784 5781 5779 5776 5773 5771 5768 5765 5761 5758 5754 5750 5746 5741 5737 5732 5728 5724 5721 5717 5714 5710 5706 5703 5701 5698 5695 5692 5689 5687 5684 5681 5679 5676 5674 5671 5669 5667 5664 5662 5660 5660 5659 5658 5656 5655 5654 5654 5654 5653 5653 5653 5653 5653 5652 5651 5650 5650 5649 5648 5648 5648 5647
5803 5801 5799 5797 5795 5793 5790 5787 5785 5782 5779 5776 5773 5771 5768 5765 5762 5758 5755 5751 5747 5743 5739 5734 5730 5725 5721 5717 5713 5710 5707 5703 5699 5696 5693 5690 5688 5685 5682 5679 5677 5675 5672 5669 5666 5663 5660 5657 5655 5653 5650 5648 5646 5646 5646 5644 5643 5641 5641 5640 5640 5639 5639 5640 5640 5639 5638 5638 5637 5637 5636 5636 5636 5636
5797 5795 5792 5790 5787 5784 5782 5779 5777 5774 5771 5768 5765 5762 5759 5756 5753 5749 5745 5741 5736 5732 5727 5722 5718 5713 5709 5706 5703 5699 5696 5693 5690 5686 5683 5681 5678 5676 5673 5670 5668 5665 5663 5660 5656 5653 5650 5646 5643 5641 5638 5634 5632 5632 5632 5631 5630 5629 5627 5627 5627 5627 5627 5627 5628 5628 5627 5627 5626 5625 5625 5625 5625 5625
5790 5788 5785 5783 5780 5777 5774 5771 5768 5765 5762 5759 5756 5753 5750 5747 5743 5739 5735 5730 5725 5721 5716 5712 5708 5703 5700 5696 5693 5690 5687 5684 5681 5678 5675 5672 5670 5667 5664 5661 5658 5655 5653 5650 5646 5643 5640 5636 5632 5629 5625 5622 5620 5619 5619 5619 5619 5618 5616 5616 5616 5616 5616 5617 5617 5617 5617 5617 5616 5615 5614 5615 5615 5614